Tracking 29018 objects as of 15-Jun-2024
HD Live streaming from Space Station
objects crossing your sky now

OPS 9381 (GGTS)

Track OPS 9381 (GGTS) now!
OPS 9381 (GGTS) is classified as:


NORAD ID: 2207
Int'l Code: 1966-053A
Perigee: 33,656.4 km
Apogee: 33,856.5 km
Inclination: 7.3 °
Period: 1,333.3 minutes
Semi major axis: 40127 km
RCS: 0.8912 m2 (medium)
Launch date: June 16, 1966
Source: United States (US)
Launch site: AIR FORCE EASTERN TEST RANGE (AFETR)
Your satellite tracking list
Your tracking list is empty




NASA's NSSDC Master Catalog

Two Line Element Set (TLE):
1 02207U 66053A   24166.56338800 -.00000102  00000-0  00000-0 0  9997
2 02207   7.2943  49.8158 0024934 216.1084 122.7791  1.08004281228046
Source of the keplerian elements: AFSPC